Regional Weather Roundup
Issued by NWS Pendleton, OR

Home | Current Version | Previous Version | Text Only | Print | Product List | Glossary On
Versions: 1 2 3 4 5 6 7 8 9 10 11 12 13 14 15 16 17 18 19 20 21 22 23 24 25 26 27 28 29 30 31 32 33 34 35 36 37 38 39 40 41 42 43 44 45 46 47 48 49 50
000
ASUS46 KPDT 280325
RWRPDT
PENDLETON REGIONAL WEATHER ROUNDUP
NATIONAL WEATHER SERVICE PENDLETON OREGON
800 PM PDT MON JUL 27 2015

NOTE: FAIR INDICATES FEW OR NO CLOUDS BELOW 12,000 FEET WITH NO
SIGNIFICANT WEATHER AND/OR OBSTRUCTIONS TO VISIBILITY.

# INDICATES UNOFFICIAL STATION AND DATA

WAZ520-280410-
EAST SLOPES OF WASHINGTON CASCADES

CITY            SKY/WX      TMP DP  RH  WIND    PRES   REMARKS
#BULLFROG 2SW   N/A         59  42  53  W9      27.80R
#BUMPING DAM    N/A         57  N/A N/A CALM    N/A
#CLE ELUM HS    N/A         63  44  50  W7      30.12R
#CLE ELUM LAKE  N/A         58  44  60  CALM    30.14R
#CLIFFDEL 2NW   N/A         60  41  49  W9G25   N/A
#GLENWOOD       N/A         68  48  49  CALM    30.11R
#MANASTASH CYN  N/A         60  38  44  W1      30.13R
#NELSON         N/A         63  46  54  NW1     30.16R
#NELSON 3SW     N/A         58  43  57  CALM    30.35R
#NILE           N/A         63  43  48  W7      29.41R
#RONALD 2NW     N/A         61  44  53  N1      30.08R
#SNOWDEN        N/A         63  26  24  NW9     N/A
#TEANAWAY 4NE   N/A         64  46  52  SW3     N/A
#TROUT LAKE 1NE N/A         65  45  48  NW9     30.12R
$$

WAZ521-280410-
SIMCOE HIGHLANDS

CITY            SKY/WX      TMP DP  RH  WIND    PRES   REMARKS
#BICKLETON HS   N/A         64  30  28  N8      N/A
#CENTERVILLE 4W N/A         70  43  38  NW18    29.89R
#CENTERVILLE 1SWN/A         68  44  42  W15     30.06R
#GOLDENDALE     N/A         72  40  31  W14     N/A
#GOLDENDALE 1NE N/A         70  30  22  SW3     N/A
#GOLDENDALE 5WNWN/A         68  44  42  W13     30.09R
#GOODNOE HILLS  N/A         71  44  38  W16     N/A
#LYLE 6NE       N/A         68  47  47  W10     30.09R
$$

WAZ026-280410-
KITTITAS VALLEY

CITY            SKY/WX      TMP DP  RH  WIND    PRES   REMARKS
ELLENSBURG AP   CLEAR       68  42  39  NW28G37 30.12R
YTC-OPS AREA    N/A         60  39  46  W36G41  30.10R
#ELLENSBURG CWU N/A         66  43  43  N16     30.03R
#ELLENSBURG 3NE N/A         65  45  48  N13G26  30.11R
#ELLENSBURG 1E  N/A         66  40  38  NW1     N/A
#KITTITAS 3S    N/A         65  45  48  W12     30.05R
#THORP 6N       N/A         62  44  52  W25G37  30.11R
$$

WAZ027-280410-
YAKIMA VALLEY

CITY            SKY/WX      TMP DP  RH  WIND    PRES   REMARKS
SUNNYSIDE AP    CLEAR       69  41  36  W9      30.08R
YAKIMA AIRPORT  MOCLEAR     73  39  29  NW21G29 30.12R
#DONALD 2NE     N/A         70  18  14  W7      28.95R
#GRANDVIEW      N/A         72  38  29  NW3     30.07R
#MABTON         N/A         73  45  37  W6      30.08R
#MOXEE 2E       N/A         68  23  18  W7      30.01R
#NACHES 2SW     N/A         65  43  45  W14G28  30.12S
#OUTLOOK DOT    N/A         N/A N/A N/A NW16    N/A
#SELAH 8E       N/A         67  40  37  W15     N/A
#TERRACE HTS    N/A         70  41  35  N9      30.03S
#TOPPENISH      N/A         72  41  33  N15G28  29.99R
#WAPATO 4NE     N/A         70  18  14  W7      28.95R
#WEST VALLEY    N/A         70  40  34  NW8     30.07R
#WHITE SWAN 5E  N/A         73  43  34  W15     30.08R
#WILEY CITY 3W  N/A         69  31  24  CALM    30.09R
$$

WAZ028-280410-
LOWER COLUMBIA BASIN...WASHINGTON

CITY            SKY/WX      TMP DP  RH  WIND    PRES   REMARKS
PASCO           MOCLDY      80  37  21  W10     30.05R
RICHLAND AWOS   PTCLDY      79  41  26  NW14    30.05R
#BASIN CITY 5SW N/A         75  45  34  NW10    30.05R
#BENTON CITY    N/A         76  42  30  W3      29.94R
#CONNELL 5N     N/A         74  47  38  SW6     30.03R
#CONNELL 5NW    N/A         69  48  47  W5      29.99R
#ELTOPIA 6NW    N/A         74  47  38  NW7     29.03R
#KAHLOTUS       N/A         74  40  29  W15G24  30.03R
#KENNEWICK      N/A         59  42  53  W9      27.80R
#KENNEWICK 3S   N/A         75  47  37  N3      30.03R
#PASCO-BROADMOORN/A         80  39  23  SW6     29.92S
#PATERSON       N/A         76  54  46  SW8     30.03R
#PROSSER        N/A         75  40  28  W7      30.05R
#SAGEMOOR 2W    N/A         75  50  41  S2      29.88R
#TOUCHET 2S     N/A         73  48  41  W1      30.02R
#WEST PASCO     N/A         80  44  28  NW6     30.07R
$$

WAZ029-280410-
FOOTHILLS OF THE BLUES...WASHINGTON

CITY            SKY/WX      TMP DP  RH  WIND    PRES   REMARKS
WALLA WALLA AP  CLEAR       75  39  27  SW9     30.09R
#DAYTON SCHOOL  N/A         72  35  26  SW1     30.09R
#LOWDEN 2SE     N/A         75  47  37  CALM    30.03R
#PLEASANT VIEW 1N/A         71  39  31  S3      30.08R
#PRESCOTT       N/A         74  43  33  CALM    30.03R
#SUDBURY        N/A         74  N/A N/A CALM    N/A
#WHITMAN COLLEGEN/A         75  44  33  S2      30.10R
#WAITSBURG 8N   N/A         67  18  15  CALM    29.91S
#WALLA WALLA U  N/A         76  45  33  CALM    30.04R
#WHITMAN MISSIONN/A         77  44  31  CALM    30.06R
$$

WAZ030-280410-
BLUE MOUNTAINS...WASHINGTON

CITY            SKY/WX      TMP DP  RH  WIND    PRES   REMARKS
$$

ORZ009-041-WAZ024-280410-
COLUMBIA RIVER GORGE

CITY            SKY/WX      TMP DP  RH  WIND    PRES   REMARKS
HOOD RIVER AP   CLEAR       70  45  41  W3      30.16R
THE DALLES AP   CLEAR       75  43  32  W16G25  30.11R
#ARLINGTON AIRPON/A         72  46  39  W17     29.81S
#MOSIER 1S      N/A         70  32  24  NW8     30.14S
#MURDOCK        N/A         75  50  41  W20G28  30.11S

$$

ORZ510-280410-
NORTH CENTRAL OREGON

CITY            SKY/WX      TMP DP  RH  WIND    PRES   REMARKS
#CHENOWITH 1W   N/A         66  42  42  W26     N/A
#COW CYN RST AREN/A         64  N/A N/A NW10    N/A
#DUFUR 9E       N/A         64  43  46  W18G26  30.18R
#GRASS VALLEY 1SN/A         65  44  46  NW16G24 30.14R
#MAUPIN SCHOOL  N/A         70  45  41  N3      30.16R
#MORO SCHOOL    N/A         66  48  52  W15     30.16R
#SHANIKO 4NW    N/A         60  38  44  NW14    30.21R
#TYGH VALLEY 2NEN/A         70  45  41  N7      30.11R
#WAPANITIA AIRPON/A         66  43  43  NW7     30.14R
#WASCO AIRPORT  N/A         69  41  36  W14     N/A
#WASCO 5NE      N/A         68  45  44  CALM    30.09R
$$

ORZ511-280410-
CENTRAL OREGON

CITY            SKY/WX      TMP DP  RH  WIND    PRES   REMARKS
BEND AIRPORT    CLEAR       64  36  35  N12     30.20R
MADRAS AIRPORT  CLEAR       64  39  40  N16     30.21R
PRINEVILLE AP   CLEAR       64  36  35  N12     30.19R
REDMOND AIRPORT CLEAR       66  35  32  N10     30.19R
#BEND 1SW       N/A         63  38  39  N1      N/A
#BEND-AWBREY    N/A         64  39  40  E2      30.12R
#BEND-KIM LN    N/A         66  40  38  N1      30.18R
#CROOKED RVR RANN/A         64  42  45  E8      30.10R
#CULVER         N/A         64  41  43  NW2     30.15R
#LAKE BILLY CHINN/A         65   2   8  N12     30.19R
#POWELL BUTTE 3EN/A         68  38  33  N9      N/A
#POWELL BUTTE   N/A         63  38  39  NE2     29.82R
#PRINEVILLE 3N  N/A         62  43  50  NW8     30.06R
#WARM SPRINGS   N/A         68  43  40  SW12    30.14R

$$


ORZ509-280410-
EAST SLOPES OF OREGON CASCADES

CITY            SKY/WX      TMP DP  RH  WIND    PRES   REMARKS
#CAMP SHERMAN   N/A         64  38  38  CALM    30.16S
#LA PINE 4NW    N/A         63  42  46  CALM    30.15R
#SISTERS AIRPOR N/A         67  47  49  N5      30.17S
#SISTERS ODOT   N/A         68  N/A N/A SW6     N/A
#SISTERS 1NW    N/A         66  37  34  NW9     N/A
#SISTERS 3N     N/A         63  37  38  SE2     30.31R
#SUNRIVER       N/A         63  38  39  N1      30.01R
#TUMALO 3W      N/A         64  38  38  NE5     30.01R
#WANOGA BUTTE D N/A         55  32  41  NE8     N/A

$$

ORZ044-280410-
LOWER COLUMBIA BASIN...OREGON

CITY            SKY/WX      TMP DP  RH  WIND    PRES   REMARKS
HERMISTON       CLEAR       76  45  33  W13     30.07R
#BOARDMAN SCHOOLN/A         76  48  37  S8      30.06R
#BOARDMAN 8SW   N/A         73  49  43  SW12    30.05R
#ECHO 8SW       N/A         75  44  33  W9      30.09R
#IONE SCHOOL    N/A         73  43  34  SW12    30.07R
#IRRIGON 4NW    N/A         78  48  35  S9      N/A
#UMATILLA       N/A         76  47  36  SW9     29.97R
$$

ORZ507-280410-
NORTHERN FOOTHILLS OF THE BLUES

CITY            SKY/WX      TMP DP  RH  WIND    PRES   REMARKS
PENDLETON AIRPT CLEAR       72  37  28  NW7     30.10R
#ADAMS 3WNW     N/A         71  40  32  W1      30.05R
#ATHENA         N/A         70  40  34  CALM    30.09R
#CAYUSE         N/A         72  41  33  NW5     30.05R
#HELIX SCHOOL   N/A         71  40  32  W2      30.06R
#HELIX 3N       N/A         69  38  32  SW8     30.08R
#HELIX 6SW      N/A         72  41  33  W8      30.10
#HOLDMAN 5SE    N/A         73  42  33  W2      30.10R
#HOLDMAN 6E     N/A         73  43  34  NW6     29.88R
#M-F GROVE ELEM N/A         76  38  25  CALM    30.07R
#M-FREEWATER 5SEN/A         72  51  48  CALM    30.09R
#PENDLETON DNTN N/A         73  37  27  CALM    30.05S
#PDT AQUATIC CTRN/A         74  39  28  W3      30.09R
#PDT SUNRIDGE   N/A         75  40  28  CALM    30.10R
#PENDLETON 7NW  N/A         74  46  37  W7      N/A
#PILOT ROCK     N/A         70  37  30  CALM    30.13R
#TUTUILLA       N/A         71  39  31  CALM    30.07R
#UMAPINE 2E     N/A         73  52  48  CALM    30.04R
#WESTON SCHOOL  N/A         70  35  28  CALM    29.99R

$$

ORZ508-280410-
SOUTHERN FOOTHILLS OF THE BLUES

CITY            SKY/WX      TMP DP  RH  WIND    PRES   REMARKS
#AJAX           N/A         66  37  34  SW12    30.09R
#CONDON SCHOOL  N/A         65  41  41  W9      30.12R
#CONDON 5W      N/A         62  37  39  NW12    30.14S
#FOSSIL SCHOOL  N/A         67  39  36  NW6     30.11R
#HEPPNER EOC    N/A         69  41  36  W7      30.02R
#HEPPNER 4NE    N/A         66  40  38  W12     30.10R
#LEXINGTON 2SE  N/A         72  43  35  NW6     30.10R
#OLEX 4N        N/A         71  44  38  W16G26  30.09R
#RUGGS 5NE      N/A         67  38  34  W10     30.40R
#RUGGS 2SW      N/A         67  40  37  NW8     30.11R

$$

ORZ502-503-280410-
BLUE MOUNTAINS

CITY            SKY/WX      TMP DP  RH  WIND    PRES   REMARKS
MEACHAM         CLEAR       61  36  39  CALM    30.19R
#HEPPNER 15SE   N/A         57  38  49  CALM    30.12R
#LONG CREEK HS  N/A         63  38  39  CALM    30.14R
#PIKES PEAK     N/A         61  38  42  SW8     27.99S
#TOLLGATE       N/A         52  37  56  CALM    30.06R
#TROY SCHOOL    N/A         72  42  34  W1      29.90R
#UKIAH          N/A         62  37  39  W1      30.14R
#WESTON 4E      N/A         64  38  38  SW5     30.05R
$$

ORZ505-280410-
JOHN DAY BASIN

CITY            SKY/WX      TMP DP  RH  WIND    PRES   REMARKS
JOHN DAY        CLEAR       65  32  29  NW8     30.19R
#JOHN DAY KJDY  N/A         70  43  38  W3      30.18R
#DAYVILLE SCHOOLN/A         72  32  23  N5      30.10R
#MITCHELL       N/A         69  41  36  CALM    30.31R
#MONUMENT HS    N/A         70  34  26  N6      30.12R
#MT. VERNON 5SE N/A         63  32  31  CALM    30.14R
#WINLOCK        N/A         61  36  39  CALM    30.24R
$$

ORZ506-280410-
OCHOCO AND JOHN DAY HIGHLANDS

CITY            SKY/WX      TMP DP  RH  WIND    PRES   REMARKS
#HORSE RIDGE DO N/A         65  33  30  N10     N/A
#KEYES SMT DOT  N/A         64  33  31  N9      N/A
#PAULINA SCHOOL N/A         68  28  22  W2      30.13R
#PINE MTN OBS   N/A         55  35  47  NW6     N/A
#PRAIRIE CITY   N/A         66  35  32  N2      30.07R
#SENECA         N/A         62  N/A N/A N1      N/A
#SENECA 9NW     N/A         58  32  37  CALM    30.07R
$$

ORZ049-280410-
GRANDE RONDE VALLEY

CITY            SKY/WX      TMP DP  RH  WIND    PRES   REMARKS
LA GRANDE       CLEAR       63  32  31  MISG    30.16R
#COVE           N/A         65  45  48  CALM    30.17R
#COVE SCHOOL    N/A         63  41  44  CALM    30.17R
#COVE 6NW       N/A         65  39  38  CALM    30.13R
#ELGIN 3N       N/A         63  36  36  NW1     30.12R
#ELGIN 1E       N/A         68  40  36  CALM    N/A
#IMBLER SCHOOL  N/A         62  40  44  W2      30.09R
#ISLAND CITY 4N N/A         71  52  51  CALM    30.21R
#LA GRANDE ELEM N/A         63  40  43  CALM    30.16R
#UNION 1S       N/A         64  40  41  CALM    30.00R
$$

ORZ050-280410-
WALLOWA COUNTY

CITY            SKY/WX      TMP DP  RH  WIND    PRES   REMARKS
JOSEPH AIRPORT  CLEAR       57  37  47  CALM    30.20R
#IMNAHA SCHOOL  N/A         63  45  52  CALM    30.10R
#IMNAHA 10S     N/A         62  42  48  CALM    30.12R
#JOSEPH 3N      N/A         57  35  43  CALM    30.18R
#JOSEPH 3W      N/A         49  37  63  W2      30.03R
#LOSTINE        N/A         60  39  46  CALM    29.89R
#MT HOWARD 8000 N/A         40  32  73  NW5     30.29R
#PROMISE 1S     N/A         61  38  42  SE6     30.19R
#WALLOWA SCHOOL N/A         65  37  35  W1      30.11R



$$



USA.gov is the U.S. government's official web portal to all federal, state and local government web resources and services.